Powrót do katalogu

STARLINK-6338

AktywnyŁącznośćVLEO
NORAD 57364·PAYLOAD·🇺🇸 United States

Wystrzelony Jul 16, 2023 z Cape Canaveral Space Force Station

Loading…

Następne Przeloty (najbliższe 24 godziny)

TLE

ŚwieżeSource: CelesTrak SupGP

Epoka: Sep 15, 2026, 02:40 UTC

1 57364C 23099AN  26258.11159722 -.00021747  00000+0 -78779-3 0  2580
2 57364  43.0005 251.7095 0001451 266.0347  16.0310 15.27583755    17

Śledź STARLINK-6338 w czasie rzeczywistym z AllMySat

Download on the App Store